Flag for Germany Weather past 2 weeks in Bielefeld, North Rhine-Westphalia, Germany

Now
40 °F

Light rain. Overcast.


Feels Like: 30 °F
Forecast: 36 / 43 °F
Wind: 22 mph from West

Location: Bad Lippspringe

Current Time: Mar 31, 2015 at 8:55:33 PM

Latest Report: Mar 31, 2015 at 8:00 PM


Visibility: 1 mi

Pressure: 29.68 "Hg

Humidity: N/A

Dew point: N/A

Location of BielefeldLocation

Historic Weather in Bielefeld — Graph

°F

Bielefeld temperature yesterday

Maximum temperature yesterday: 45 °F (at 12:00 AM)
Minimum temperature yesterday: 39 °F (at 10:00 AM)
Average temperature yesterday: 42 °F

Past Weeks' High & Low Weather Summary

 TemperatureHumidityPressure
High63 °F (Mar 25, 3:00 PM)100% (Mar 19, 8:00 AM)30.38 "Hg (Mar 19, 8:00 AM)
Low27 °F (Mar 23, 5:00 AM)42% (Mar 17, 3:00 PM)29.15 "Hg (Mar 31, 7:00 AM)
Average43 °F80%29.96 "Hg
* Reported Mar 16 6:00 PM — Mar 31 7:00 PM, Bielefeld, Weather by CustomWeather, © 2015

Note: Actual official high and low records may vary slightly from our data, if they occured in-between our weather recording intervals... More about our weather records

Advertising

Bielefeld weather history for previous 24 hours

 ConditionsComfort  
Time TempWeatherWind HumidityBarometerVisibility
7:00 PM
Tue, Mar 31
46 °FOvercast.13 mph56%29.60 "Hg28 mi
6:00 PM45 °FPartly sunny.12 mph61%29.58 "Hg22 mi
5:00 PM44 °FOvercast.13 mph70%29.53 "Hg16 mi
4:00 PM47 °FPartly sunny.15 mph64%29.47 "Hg11 mi
3:00 PM43 °FLight freezing rain. Overcast.13 mph86%29.44 "Hg6 mi
2:00 PM49 °FOvercast.17 mph56%29.35 "Hg14 mi
1:00 PM49 °FPartly sunny.15 mph68%29.32 "Hg12 mi
12:00 PM48 °FLight freezing rain. Overcast.12 mph70%29.29 "Hg15 mi
11:00 AM48 °FOvercast.12 mph75%29.26 "Hg18 mi
10:00 AM46 °FOvercast.9 mph85%29.23 "Hg25 mi
9:00 AM44 °FRain. Overcast.10 mph91%29.21 "Hg2 mi
8:00 AM50 °FLight freezing rain. Overcast.14 mph91%29.15 "Hg7 mi
7:00 AM49 °FLight rain. Low clouds.10 mph97%29.15 "Hg43 mi
6:00 AM42 °FRain. Overcast.3 mph99%29.21 "Hg8 mi
5:00 AM38 °FRain. Overcast.6 mph95%29.29 "Hg17 mi
4:00 AM38 °FLight rain. Overcast.5 mph91%29.38 "Hg16 mi
3:00 AM36 °FLight rain. Overcast.5 mph92%29.50 "Hg9 mi
2:00 AM39 °FLight freezing rain. Overcast.8 mph82%29.61 "Hg34 mi
1:00 AM40 °FOvercast.3 mph67%29.67 "Hg37 mi
12:00 AM39 °FOvercast.3 mph68%29.73 "Hg43 mi
11:00 PM
Mon, Mar 30
39 °FOvercast.5 mph69%29.78 "Hg43 mi
10:00 PM39 °FClear.3 mph71%29.80 "Hg43 mi
9:00 PM40 °FPassing clouds.3 mph65%29.80 "Hg43 mi
8:00 PM43 °FPassing clouds.7 mph58%29.79 "Hg25 mi
Weather by CustomWeather, © 2015

See weather overviewHow to use our weather pages